Location: *
(41.7492°S, 135.4150°W)
Time: 22:29:42
(UTC+00:00)

METEOR M2 - Pass Details

Date: 06 July 2022
Orbit: 818 x 827 km, 98.4° (Epoch: 17 August)

Event Time Altitude Azimuth Distance (km) Brightness Sun altitude
Rises 15:47:56 0° 352° (N) 3,345 ? -7.6°
Reaches altitude 10° 15:50:27 10° 344° (NNW) 2,420 ? -7.2°
Maximum altitude 15:55:22 37° 277° (W) 1,275 ? -6.4°
Drops below altitude 10° 16:00:22 10° 210° (SSW) 2,446 ? -5.5°
Sets 16:02:55 0° 201° (SSW) 3,386 ? -5.1°
